QPF
0.00 0.00 0.01 0.01 0.01 0.01 0.01 0.01 0.01 0.01 0.01 0.01 0.01 0.02 0.02 0.02 0.03 0.04 0.03 0.04 0.06 0.06 0.06 0.04 0.03 0.04 0.04 0.05 0.04 0.03 0.03 0.03 0.02 0.01 0.01 0.03 0.03 0.04 0.05 0.05 0.07 0.09 0.19
0.00 0.00 0.00 0.01 0.01 0.01 0.00 0.00 0.00 0.01 0.01 0.01 0.01 0.02 0.03 0.02 0.03 0.05 0.05 0.04 0.04 0.05 0.04 0.05 0.05 0.05 0.06 0.05 0.04 0.04 0.05 0.04 0.03 0.01 0.01 0.05 0.06 0.04 0.05 0.05 0.07 0.10 0.22
0.00 0.00 0.00 0.00 0.01 0.01 0.01 0.00 0.01 0.01 0.01 0.01 0.02 0.02 0.02 0.03 0.03 0.04 0.07 0.06 0.04 0.03 0.03 0.03 0.05 0.06 0.07 0.06 0.06 0.06 0.04 0.03 0.03 0.01 0.01 0.05 0.08 0.06 0.04 0.06 0.08 0.09 0.12
0.00 0.00 0.00 0.00 0.00 0.01 0.01 0.01 0.02 0.03 0.03 0.03 0.04 0.03 0.03 0.04 0.05 0.06 0.07 0.07 0.06 0.03 0.02 0.02 0.02 0.03 0.04 0.06 0.07 0.08 0.06 0.05 0.05 0.03 0.02 0.04 0.06 0.06 0.06 0.07 0.08 0.14 0.16
0.00 0.00 0.00 0.00 0.00 0.01 0.01 0.01 0.02 0.04 0.04 0.04 0.04 0.03 0.04 0.05 0.06 0.08 0.11 0.08 0.06 0.06 0.04 0.03 0.02 0.01 0.02 0.04 0.06 0.06 0.07 0.08 0.09 0.09 0.06 0.05 0.07 0.08 0.07 0.06 0.08 0.13 0.20
0.00 0.00 0.00 0.00 0.01 0.01 0.01 0.01 0.02 0.03 0.04 0.05 0.04 0.03 0.04 0.04 0.06 0.09 0.11 0.08 0.07 0.06 0.07 0.06 0.04 0.01 0.02 0.03 0.03 0.05 0.07 0.07 0.09 0.12 0.11 0.06 0.05 0.05 0.05 0.06 0.07 0.09 0.17
0.00 0.00 0.00 0.00 0.01 0.01 0.01 0.02 0.03 0.04 0.04 0.05 0.06 0.06 0.05 0.05 0.06 0.06 0.08 0.08 0.06 0.05 0.06 0.06 0.07 0.06 0.03 0.02 0.02 0.03 0.04 0.05 0.06 0.06 0.10 0.08 0.05 0.05 0.05 0.05 0.06 0.07 0.11
0.00 0.00 0.00 0.00 0.01 0.01 0.01 0.02 0.04 0.06 0.04 0.03 0.05 0.06 0.06 0.05 0.05 0.04 0.06 0.07 0.06 0.05 0.05 0.05 0.05 0.06 0.07 0.04 0.01 0.01 0.01 0.02 0.03 0.02 0.04 0.07 0.06 0.06 0.08 0.07 0.06 0.06 0.08
0.00 0.00 0.00 0.00 0.00 0.00 0.01 0.01 0.02 0.05 0.06 0.04 0.03 0.06 0.07 0.07 0.06 0.05 0.05 0.05 0.05 0.05 0.06 0.05 0.04 0.04 0.05 0.05 0.02 0.01 0.01 0.01 0.02 0.01 0.03 0.05 0.05 0.05 0.06 0.07 0.06 0.09 0.11
0.00 0.00 0.00 0.00 0.00 0.00 0.01 0.01 0.01 0.02 0.05 0.06 0.05 0.03 0.03 0.05 0.06 0.04 0.04 0.04 0.04 0.04 0.04 0.03 0.04 0.05 0.05 0.05 0.02 0.00 0.01 0.01 0.01 0.02 0.04 0.04 0.05 0.05 0.05 0.06 0.05 0.07 0.14
0.00 0.00 0.00 0.00 0.00 0.00 0.00 0.00 0.00 0.01 0.03 0.05 0.05 0.05 0.05 0.05 0.04 0.04 0.04 0.04 0.04 0.04 0.04 0.03 0.04 0.05 0.06 0.05 0.02 0.00 0.00 0.01 0.01 0.03 0.04 0.04 0.06 0.06 0.06 0.06 0.05 0.04 0.07
0.00 0.00 0.00 0.00 0.00 0.00 0.00 0.00 0.01 0.00 0.01 0.03 0.04 0.04 0.05 0.05 0.04 0.04 0.04 0.04 0.04 0.04 0.05 0.04 0.05 0.06 0.07 0.04 0.02 0.01 0.01 0.01 0.01 0.02 0.03 0.03 0.05 0.06 0.06 0.06 0.05 0.04 0.03
0.00 0.00 0.00 0.00 0.00 0.00 0.00 0.00 0.01 0.00 0.01 0.02 0.03 0.03 0.03 0.03 0.02 0.03 0.04 0.04 0.03 0.04 0.04 0.04 0.04 0.07 0.07 0.07 0.03 0.02 0.02 0.01 0.01 0.02 0.02 0.02 0.04 0.07 0.08 0.08 0.07 0.06 0.04
0.00 0.00 0.00 0.00 0.00 0.00 0.00 0.00 0.00 0.00 0.00 0.01 0.01 0.01 0.02 0.01 0.01 0.02 0.03 0.04 0.03 0.02 0.03 0.02 0.03 0.04 0.04 0.07 0.05 0.04 0.02 0.01 0.01 0.02 0.02 0.03 0.05 0.07 0.08 0.09 0.08 0.09 0.06
0.00 0.00 0.00 0.00 0.00 0.00 0.00 0.00 0.00 0.00 0.00 0.00 0.00 0.01 0.01 0.01 0.01 0.01 0.02 0.02 0.04 0.03 0.02 0.02 0.02 0.03 0.04 0.07 0.06 0.04 0.01 0.01 0.01 0.02 0.03 0.03 0.05 0.07 0.08 0.09 0.08 0.10 0.08
0.00 0.00 0.00 0.00 0.00 0.00 0.00 0.00 0.00 0.00 0.01 0.01 0.00 0.01 0.01 0.01 0.01 0.01 0.01 0.01 0.02 0.04 0.04 0.03 0.03 0.03 0.06 0.04 0.04 0.02 0.01 0.01 0.02 0.02 0.02 0.02 0.03 0.04 0.06 0.08 0.08 0.08 0.08
0.00 0.00 0.00 0.00 0.00 0.00 0.01 0.00 0.00 0.00 0.01 0.01 0.01 0.01 0.01 0.01 0.01 0.01 0.02 0.01 0.01 0.02 0.04 0.03 0.02 0.05 0.05 0.03 0.02 0.03 0.02 0.02 0.02 0.01 0.01 0.01 0.02 0.02 0.04 0.06 0.07 0.07 0.06
0.00 0.00 0.00 0.00 0.00 0.00 0.01 0.00 0.00 0.01 0.01 0.01 0.02 0.01 0.01 0.01 0.01 0.01 0.01 0.02 0.02 0.02 0.03 0.02 0.02 0.03 0.03 0.03 0.02 0.03 0.03 0.02 0.02 0.01 0.01 0.01 0.02 0.03 0.04 0.05 0.07 0.08 0.07
0.00 0.00 0.00 0.00 0.00 0.00 0.00 0.00 0.00 0.01 0.01 0.01 0.01 0.02 0.01 0.02 0.01 0.01 0.02 0.02 0.02 0.02 0.02 0.02 0.02 0.02 0.03 0.02 0.03 0.03 0.03 0.04 0.02 0.02 0.02 0.02 0.02 0.02 0.03 0.04 0.04 0.04 0.04
0.00 0.00 0.00 0.00 0.00 0.00 0.00 0.00 0.00 0.00 0.00 0.00 0.01 0.01 0.01 0.01 0.01 0.01 0.01 0.01 0.01 0.01 0.02 0.02 0.02 0.03 0.03 0.03 0.03 0.03 0.03 0.05 0.03 0.02 0.02 0.01 0.01 0.01 0.01 0.02 0.01 0.02 0.02
0.00 0.00 0.00 0.00 0.00 0.00 0.00 0.00 0.00 0.00 0.00 0.00 0.00 0.00 0.00 0.00 0.00 0.00 0.00 0.01 0.01 0.01 0.01 0.01 0.01 0.02 0.03 0.03 0.03 0.04 0.04 0.05 0.05 0.03 0.02 0.01 0.01 0.00 0.00 0.01 0.01 0.01 0.01
0.00 0.00 0.00 0.00 0.00 0.00 0.00 0.00 0.00 0.00 0.00 0.00 0.00 0.00 0.00 0.00 0.00 0.00 0.00 0.01 0.01 0.00 0.00 0.00 0.01 0.01 0.01 0.02 0.02 0.02 0.02 0.02 0.02 0.02 0.01 0.01 0.01 0.01 0.01 0.01 0.01 0.01 0.01
0.00 0.00 0.00 0.00 0.00 0.00 0.00 0.00 0.00 0.00 0.00 0.00 0.00 0.01 0.01 0.00 0.00 0.00 0.00 0.00 0.00 0.00 0.00 0.00 0.00 0.00 0.01 0.01 0.01 0.01 0.01 0.02 0.02 0.01 0.01 0.00 0.00 0.01 0.00 0.00 0.01 0.01 0.00
0.00 0.00 0.00 0.00 0.00 0.00 0.00 0.00 0.00 0.00 0.00 0.00 0.00 0.01 0.00 0.00 0.00 0.00 0.00 0.00 0.00 0.00 0.00 0.00 0.00 0.00 0.00 0.00 0.01 0.01 0.01 0.01 0.01 0.02 0.02 0.01 0.00 0.00 0.00 0.00 0.01 0.00 0.00
0.00 0.00 0.00 0.00 0.00 0.00 0.00 0.00 0.00 0.00 0.00 0.00 0.00 0.00 0.00 0.00 0.00 0.00 0.00 0.00 0.00 0.00 0.00 0.00 0.00 0.00 0.00 0.00 0.00 0.01 0.01 0.00 0.00 0.01 0.01 0.00 0.00 0.00 0.00 0.00 0.01 0.01 0.00
0.00 0.00 0.00 0.00 0.00 0.00 0.00 0.00 0.00 0.00 0.00 0.00 0.00 0.00 0.00 0.00 0.00 0.00 0.00 0.00 0.00 0.00 0.00 0.00 0.00 0.00 0.00 0.00 0.00 0.01 0.01 0.01 0.00 0.00 0.00 0.00 0.00 0.00 0.00 0.00 0.00 0.01 0.01
MSLP
1014.86 1014.87 1014.80 1014.68 1014.55 1014.46 1014.41 1014.42 1014.45 1014.50 1014.51 1014.49 1014.42 1014.33 1014.26 1014.25 1014.33 1014.54 1014.84 1015.21 1015.58 1015.90 1016.12 1016.19 1016.12 1015.94 1015.69 1015.43 1015.18 1014.98 1014.79 1014.56 1014.24 1013.72 1012.95 1011.89 1010.57 1009.03 1007.41 1005.84 1004.51 1003.55 1003.08
1014.90 1014.87 1014.79 1014.68 1014.58 1014.53 1014.54 1014.61 1014.72 1014.82 1014.89 1014.91 1014.86 1014.78 1014.69 1014.64 1014.67 1014.81 1015.05 1015.35 1015.68 1015.98 1016.19 1016.29 1016.26 1016.13 1015.93 1015.72 1015.51 1015.32 1015.14 1014.91 1014.56 1014.01 1013.21 1012.12 1010.77 1009.21 1007.56 1005.98 1004.63 1003.66 1003.19
1015.03 1014.97 1014.88 1014.78 1014.72 1014.72 1014.79 1014.93 1015.10 1015.28 1015.41 1015.48 1015.46 1015.39 1015.28 1015.20 1015.16 1015.21 1015.36 1015.57 1015.82 1016.05 1016.24 1016.33 1016.33 1016.24 1016.10 1015.94 1015.78 1015.63 1015.47 1015.26 1014.93 1014.41 1013.64 1012.60 1011.31 1009.82 1008.24 1006.73 1005.44 1004.51 1004.06
1015.23 1015.14 1015.04 1014.96 1014.93 1014.98 1015.10 1015.30 1015.54 1015.78 1015.97 1016.09 1016.12 1016.06 1015.96 1015.84 1015.75 1015.72 1015.76 1015.87 1016.02 1016.17 1016.30 1016.37 1016.37 1016.31 1016.21 1016.09 1015.98 1015.88 1015.76 1015.60 1015.32 1014.88 1014.21 1013.29 1012.14 1010.81 1009.40 1008.04 1006.88 1006.03 1005.61
1015.47 1015.35 1015.25 1015.18 1015.17 1015.25 1015.42 1015.66 1015.94 1016.23 1016.47 1016.64 1016.72 1016.71 1016.62 1016.50 1016.38 1016.29 1016.25 1016.26 1016.31 1016.37 1016.42 1016.45 1016.43 1016.38 1016.30 1016.22 1016.15 1016.09 1016.02 1015.91 1015.71 1015.37 1014.84 1014.10 1013.16 1012.06 1010.89 1009.75 1008.76 1008.04 1007.66
1015.72 1015.58 1015.47 1015.41 1015.42 1015.51 1015.69 1015.94 1016.25 1016.56 1016.84 1017.06 1017.19 1017.24 1017.21 1017.12 1017.01 1016.90 1016.81 1016.75 1016.71 1016.69 1016.67 1016.63 1016.58 1016.52 1016.44 1016.38 1016.33 1016.29 1016.26 1016.20 1016.08 1015.85 1015.48 1014.93 1014.23 1013.40 1012.49 1011.60 1010.82 1010.25 1009.94
1015.98 1015.82 1015.71 1015.64 1015.65 1015.74 1015.91 1016.15 1016.44 1016.75 1017.05 1017.30 1017.50 1017.62 1017.67 1017.66 1017.60 1017.51 1017.42 1017.32 1017.23 1017.15 1017.06 1016.98 1016.89 1016.79 1016.70 1016.63 1016.58 1016.55 1016.53 1016.50 1016.44 1016.30 1016.06 1015.70 1015.22 1014.64 1014.01 1013.37 1012.81 1012.39 1012.16
1016.24 1016.09 1015.97 1015.90 1015.90 1015.96 1016.09 1016.29 1016.54 1016.82 1017.12 1017.40 1017.65 1017.86 1018.00 1018.09 1018.12 1018.10 1018.04 1017.96 1017.86 1017.74 1017.62 1017.49 1017.36 1017.23 1017.12 1017.03 1016.95 1016.90 1016.87 1016.85 1016.80 1016.72 1016.58 1016.36 1016.06 1015.69 1015.29 1014.87 1014.51 1014.23 1014.08
1016.54 1016.39 1016.27 1016.20 1016.18 1016.20 1016.29 1016.42 1016.61 1016.84 1017.11 1017.39 1017.69 1017.97 1018.21 1018.41 1018.55 1018.63 1018.64 1018.61 1018.53 1018.42 1018.28 1018.13 1017.98 1017.83 1017.69 1017.57 1017.47 1017.39 1017.32 1017.27 1017.21 1017.14 1017.04 1016.90 1016.72 1016.51 1016.27 1016.03 1015.82 1015.67 1015.60
1016.87 1016.74 1016.64 1016.56 1016.52 1016.51 1016.53 1016.59 1016.70 1016.86 1017.08 1017.35 1017.66 1017.99 1018.32 1018.62 1018.87 1019.05 1019.16 1019.19 1019.16 1019.08 1018.96 1018.82 1018.67 1018.51 1018.36 1018.23 1018.10 1017.98 1017.88 1017.78 1017.68 1017.59 1017.49 1017.38 1017.26 1017.13 1017.00 1016.87 1016.77 1016.70 1016.69
1017.23 1017.13 1017.04 1016.97 1016.92 1016.87 1016.84 1016.83 1016.86 1016.94 1017.10 1017.33 1017.63 1017.98 1018.36 1018.73 1019.07 1019.34 1019.54 1019.65 1019.68 1019.65 1019.57 1019.46 1019.33 1019.19 1019.05 1018.92 1018.78 1018.65 1018.51 1018.37 1018.24 1018.10 1017.98 1017.86 1017.75 1017.66 1017.57 1017.51 1017.46 1017.45 1017.47
1017.59 1017.51 1017.46 1017.40 1017.35 1017.28 1017.21 1017.14 1017.10 1017.10 1017.19 1017.36 1017.62 1017.96 1018.35 1018.76 1019.15 1019.49 1019.75 1019.93 1020.02 1020.05 1020.02 1019.95 1019.87 1019.77 1019.67 1019.57 1019.45 1019.32 1019.17 1019.02 1018.85 1018.69 1018.54 1018.40 1018.28 1018.19 1018.12 1018.07 1018.05 1018.05 1018.08
1017.89 1017.86 1017.83 1017.80 1017.76 1017.69 1017.60 1017.50 1017.40 1017.34 1017.36 1017.46 1017.67 1017.97 1018.34 1018.74 1019.14 1019.50 1019.80 1020.03 1020.17 1020.25 1020.28 1020.27 1020.24 1020.21 1020.16 1020.10 1020.03 1019.93 1019.81 1019.66 1019.50 1019.33 1019.17 1019.02 1018.90 1018.80 1018.72 1018.67 1018.65 1018.65 1018.67
1018.11 1018.10 1018.12 1018.12 1018.11 1018.07 1017.98 1017.86 1017.74 1017.64 1017.60 1017.64 1017.79 1018.02 1018.34 1018.71 1019.09 1019.44 1019.75 1019.99 1020.17 1020.29 1020.36 1020.41 1020.45 1020.47 1020.49 1020.50 1020.49 1020.44 1020.37 1020.27 1020.14 1019.99 1019.85 1019.72 1019.60 1019.51 1019.43 1019.38 1019.35 1019.33 1019.33
1018.21 1018.24 1018.29 1018.35 1018.38 1018.38 1018.32 1018.22 1018.10 1017.98 1017.90 1017.90 1017.98 1018.15 1018.41 1018.71 1019.05 1019.37 1019.66 1019.90 1020.09 1020.24 1020.35 1020.44 1020.53 1020.62 1020.70 1020.77 1020.82 1020.84 1020.83 1020.78 1020.71 1020.62 1020.52 1020.43 1020.34 1020.28 1020.22 1020.18 1020.14 1020.11 1020.08
1018.20 1018.27 1018.37 1018.48 1018.57 1018.62 1018.62 1018.56 1018.46 1018.35 1018.26 1018.23 1018.26 1018.38 1018.57 1018.82 1019.09 1019.37 1019.62 1019.85 1020.04 1020.19 1020.33 1020.46 1020.58 1020.71 1020.84 1020.95 1021.06 1021.13 1021.17 1021.19 1021.18 1021.15 1021.11 1021.08 1021.05 1021.03 1021.01 1020.99 1020.96 1020.93 1020.88
1018.14 1018.25 1018.40 1018.56 1018.72 1018.83 1018.88 1018.88 1018.83 1018.75 1018.67 1018.63 1018.64 1018.72 1018.86 1019.05 1019.27 1019.50 1019.72 1019.92 1020.10 1020.26 1020.40 1020.54 1020.68 1020.83 1020.97 1021.12 1021.24 1021.35 1021.43 1021.49 1021.52 1021.55 1021.58 1021.60 1021.63 1021.67 1021.70 1021.72 1021.71 1021.69 1021.64
1018.10 1018.25 1018.44 1018.66 1018.87 1019.04 1019.16 1019.21 1019.21 1019.17 1019.12 1019.08 1019.09 1019.15 1019.26 1019.41 1019.59 1019.78 1019.98 1020.15 1020.31 1020.46 1020.60 1020.74 1020.88 1021.02 1021.16 1021.30 1021.42 1021.53 1021.62 1021.69 1021.75 1021.81 1021.88 1021.95 1022.04 1022.12 1022.20 1022.26 1022.30 1022.30 1022.27
1018.12 1018.31 1018.55 1018.82 1019.07 1019.29 1019.45 1019.56 1019.60 1019.60 1019.58 1019.57 1019.58 1019.63 1019.73 1019.86 1020.01 1020.18 1020.35 1020.51 1020.66 1020.79 1020.92 1021.05 1021.17 1021.29 1021.41 1021.52 1021.61 1021.69 1021.76 1021.82 1021.88 1021.95 1022.03 1022.13 1022.24 1022.37 1022.48 1022.58 1022.65 1022.69 1022.69
1018.25 1018.48 1018.76 1019.05 1019.34 1019.58 1019.78 1019.91 1019.98 1020.01 1020.02 1020.03 1020.06 1020.12 1020.21 1020.33 1020.47 1020.63 1020.78 1020.92 1021.06 1021.18 1021.29 1021.40 1021.50 1021.60 1021.68 1021.75 1021.80 1021.84 1021.87 1021.90 1021.93 1021.98 1022.06 1022.16 1022.28 1022.42 1022.56 1022.69 1022.79 1022.86 1022.89
1018.46 1018.74 1019.04 1019.35 1019.64 1019.89 1020.09 1020.22 1020.31 1020.36 1020.39 1020.42 1020.46 1020.53 1020.63 1020.75 1020.88 1021.03 1021.17 1021.30 1021.42 1021.53 1021.62 1021.71 1021.80 1021.86 1021.92 1021.95 1021.97 1021.97 1021.96 1021.94 1021.94 1021.96 1022.01 1022.09 1022.21 1022.34 1022.48 1022.62 1022.75 1022.84 1022.90
1018.71 1019.01 1019.33 1019.63 1019.91 1020.15 1020.33 1020.46 1020.54 1020.59 1020.63 1020.68 1020.74 1020.82 1020.93 1021.05 1021.18 1021.32 1021.44 1021.56 1021.66 1021.75 1021.84 1021.91 1021.97 1022.03 1022.06 1022.08 1022.07 1022.05 1022.01 1021.97 1021.94 1021.93 1021.95 1022.01 1022.10 1022.22 1022.35 1022.48 1022.61 1022.71 1022.80
1018.91 1019.23 1019.54 1019.84 1020.09 1020.30 1020.45 1020.56 1020.63 1020.68 1020.73 1020.79 1020.87 1020.97 1021.09 1021.21 1021.34 1021.47 1021.58 1021.67 1021.76 1021.83 1021.89 1021.95 1022.01 1022.05 1022.08 1022.10 1022.09 1022.07 1022.03 1021.98 1021.94 1021.92 1021.93 1021.97 1022.03 1022.12 1022.23 1022.35 1022.46 1022.56 1022.64
1018.97 1019.30 1019.61 1019.88 1020.10 1020.28 1020.41 1020.50 1020.56 1020.62 1020.68 1020.76 1020.87 1020.99 1021.13 1021.26 1021.39 1021.50 1021.60 1021.67 1021.72 1021.77 1021.82 1021.86 1021.91 1021.95 1022.00 1022.02 1022.04 1022.04 1022.02 1022.00 1021.97 1021.96 1021.96 1021.99 1022.04 1022.11 1022.20 1022.29 1022.38 1022.45 1022.52
1018.84 1019.17 1019.47 1019.73 1019.93 1020.08 1020.20 1020.28 1020.36 1020.43 1020.53 1020.65 1020.79 1020.95 1021.11 1021.26 1021.39 1021.50 1021.57 1021.62 1021.64 1021.66 1021.68 1021.71 1021.75 1021.80 1021.85 1021.90 1021.95 1021.98 1022.01 1022.02 1022.03 1022.04 1022.06 1022.09 1022.13 1022.19 1022.25 1022.32 1022.37 1022.42 1022.45
1018.51 1018.85 1019.14 1019.39 1019.59 1019.74 1019.86 1019.96 1020.07 1020.19 1020.34 1020.51 1020.70 1020.91 1021.10 1021.28 1021.42 1021.52 1021.58 1021.60 1021.60 1021.59 1021.58 1021.58 1021.61 1021.66 1021.72 1021.79 1021.87 1021.94 1022.00 1022.06 1022.10 1022.15 1022.19 1022.23 1022.28 1022.33 1022.37 1022.41 1022.44 1022.45 1022.45
Thickness
5740 5738 5736 5734 5732 5731 5730 5729 5729 5728 5727 5727 5726 5726 5726 5725 5723 5721 5720 5721 5722 5724 5726 5728 5730 5732 5735 5737 5739 5742 5744 5747 5749 5752 5755 5758 5762 5765 5768 5770 5772 5774 5777
5738 5736 5734 5733 5731 5730 5728 5727 5726 5724 5723 5722 5722 5722 5722 5721 5721 5719 5718 5717 5718 5720 5722 5724 5726 5729 5731 5733 5736 5738 5741 5743 5746 5749 5752 5755 5759 5762 5765 5766 5769 5771 5774
5737 5735 5733 5731 5730 5729 5727 5725 5723 5722 5720 5719 5718 5718 5718 5718 5718 5717 5716 5715 5716 5717 5719 5721 5723 5725 5727 5729 5732 5735 5737 5740 5743 5746 5749 5752 5754 5757 5759 5761 5764 5767 5768
5735 5732 5730 5729 5728 5726 5724 5722 5720 5717 5716 5715 5714 5714 5714 5715 5715 5715 5715 5714 5714 5714 5715 5717 5719 5721 5723 5725 5728 5731 5733 5736 5740 5743 5746 5748 5750 5752 5754 5756 5759 5761 5763
5733 5730 5729 5727 5726 5724 5723 5721 5717 5715 5713 5712 5711 5711 5711 5711 5712 5713 5713 5712 5712 5713 5713 5714 5716 5718 5719 5721 5724 5726 5729 5732 5736 5739 5742 5744 5745 5747 5749 5751 5753 5755 5757
5731 5729 5727 5726 5724 5722 5720 5718 5715 5713 5712 5711 5711 5709 5708 5709 5709 5709 5710 5710 5710 5712 5712 5713 5714 5714 5716 5717 5719 5721 5724 5727 5731 5734 5736 5738 5739 5741 5743 5746 5748 5750 5751
5729 5727 5725 5724 5722 5719 5718 5716 5714 5711 5710 5710 5706 5703 5704 5706 5706 5706 5707 5708 5709 5710 5711 5711 5712 5712 5713 5713 5714 5717 5720 5723 5725 5728 5730 5731 5734 5736 5738 5740 5743 5744 5745
5727 5726 5725 5722 5720 5718 5716 5715 5712 5709 5709 5710 5705 5699 5694 5695 5700 5704 5705 5706 5706 5707 5708 5709 5710 5710 5710 5710 5710 5712 5715 5718 5720 5723 5726 5727 5729 5731 5733 5735 5737 5739 5741
5725 5725 5724 5722 5720 5718 5715 5714 5712 5709 5706 5708 5709 5702 5694 5689 5693 5698 5701 5703 5704 5705 5706 5707 5707 5707 5707 5706 5707 5708 5710 5713 5715 5718 5720 5722 5724 5725 5727 5729 5732 5734 5736
5724 5723 5723 5722 5720 5718 5716 5715 5714 5712 5709 5705 5708 5709 5707 5704 5695 5690 5695 5700 5702 5702 5704 5705 5704 5704 5704 5703 5703 5704 5705 5708 5710 5712 5715 5717 5719 5721 5722 5724 5726 5728 5730
5723 5722 5722 5721 5719 5718 5716 5715 5714 5713 5711 5708 5707 5707 5707 5706 5705 5696 5689 5693 5697 5700 5701 5702 5702 5701 5701 5700 5700 5700 5701 5703 5705 5707 5709 5712 5713 5715 5717 5719 5721 5723 5725
5722 5722 5721 5720 5719 5718 5716 5715 5714 5713 5712 5711 5710 5709 5706 5703 5700 5698 5693 5691 5692 5695 5698 5699 5699 5698 5697 5697 5696 5696 5697 5699 5700 5702 5704 5705 5707 5709 5711 5714 5716 5718 5720
5720 5721 5721 5719 5718 5717 5717 5716 5715 5713 5713 5711 5710 5709 5708 5707 5706 5703 5697 5693 5692 5693 5695 5695 5696 5695 5695 5694 5693 5693 5694 5694 5696 5697 5698 5700 5702 5704 5706 5708 5711 5713 5715
5722 5722 5721 5719 5718 5718 5717 5716 5714 5714 5713 5711 5710 5709 5707 5707 5707 5705 5700 5695 5690 5689 5690 5690 5693 5693 5692 5691 5690 5690 5690 5691 5692 5693 5694 5695 5697 5698 5700 5702 5705 5706 5708
5724 5722 5721 5720 5719 5718 5717 5715 5713 5712 5711 5710 5709 5708 5706 5706 5706 5705 5704 5700 5693 5685 5684 5688 5689 5691 5691 5690 5688 5688 5687 5688 5688 5689 5690 5691 5692 5693 5694 5696 5698 5699 5700
5724 5722 5721 5720 5719 5718 5716 5714 5712 5711 5709 5708 5707 5706 5705 5704 5704 5704 5703 5702 5699 5693 5685 5687 5688 5690 5690 5689 5687 5686 5685 5685 5686 5686 5686 5687 5688 5688 5689 5691 5691 5692 5693
5724 5723 5722 5721 5719 5717 5716 5713 5712 5710 5708 5707 5706 5704 5703 5703 5701 5701 5701 5700 5698 5695 5687 5687 5689 5689 5689 5687 5686 5685 5684 5683 5683 5683 5683 5683 5683 5684 5685 5685 5685 5686 5686
5723 5723 5722 5720 5718 5717 5715 5713 5711 5709 5707 5705 5704 5703 5702 5702 5700 5699 5698 5697 5696 5695 5690 5685 5686 5687 5686 5686 5685 5684 5683 5682 5681 5680 5680 5680 5680 5680 5680 5680 5680 5679 5679
5722 5722 5721 5719 5717 5716 5714 5712 5710 5708 5706 5705 5703 5701 5700 5699 5697 5696 5696 5695 5694 5694 5691 5687 5684 5685 5685 5685 5683 5682 5682 5680 5679 5678 5677 5677 5676 5676 5675 5675 5674 5674 5673
5720 5720 5719 5718 5716 5715 5713 5711 5709 5707 5705 5703 5702 5700 5698 5696 5694 5694 5693 5692 5691 5689 5688 5685 5682 5682 5681 5682 5680 5677 5676 5677 5677 5676 5675 5673 5672 5672 5671 5670 5670 5669 5668
5719 5718 5717 5715 5714 5712 5710 5708 5707 5706 5703 5701 5699 5697 5695 5693 5692 5691 5690 5688 5687 5685 5683 5681 5679 5678 5676 5675 5674 5675 5673 5672 5672 5672 5671 5670 5669 5667 5666 5665 5665 5664 5662
5715 5714 5713 5711 5709 5708 5706 5705 5703 5702 5701 5698 5696 5694 5693 5691 5689 5688 5687 5686 5685 5682 5679 5677 5675 5673 5672 5672 5672 5671 5669 5666 5664 5668 5666 5665 5665 5663 5662 5660 5659 5658 5657
5711 5709 5708 5707 5704 5703 5703 5702 5700 5698 5697 5696 5694 5693 5692 5690 5687 5686 5684 5683 5682 5681 5679 5676 5672 5671 5670 5670 5668 5666 5664 5662 5660 5662 5662 5659 5660 5658 5657 5655 5653 5651 5650
5706 5705 5704 5703 5701 5699 5699 5698 5697 5695 5694 5693 5692 5691 5689 5687 5685 5683 5682 5680 5678 5677 5676 5674 5672 5670 5668 5667 5666 5664 5662 5660 5659 5659 5657 5652 5652 5651 5651 5649 5647 5644 5642
5704 5703 5701 5700 5698 5696 5695 5694 5693 5691 5690 5690 5689 5688 5686 5683 5683 5681 5678 5676 5674 5672 5672 5671 5669 5667 5665 5663 5661 5659 5656 5652 5650 5650 5651 5647 5645 5644 5644 5642 5639 5636 5634
5702 5700 5698 5697 5696 5694 5692 5691 5689 5688 5686 5685 5685 5683 5682 5680 5678 5676 5673 5671 5668 5667 5667 5665 5663 5662 5660 5659 5657 5654 5650 5646 5643 5641 5643 5640 5637 5634 5632 5634 5631 5628 5625